KHRJ

Details ICAO KHRJ
Name HARNETT COUNTY
Region United States
Timezone America/New_York (UTC-4.0)
Plans Departing 5
Arriving 2
Stats Elevation 202 ft / 62 m (AMSL)
Location 35.380156° -78.732235°
Runways 1
Magnetic Variation 9.147° W
Sunrise 2018-05-21 10:07:48 UTC / 2018-05-21 06:07:48 Local
Sunset 2018-05-22 00:18:07 UTC / 2018-05-21 20:18:07 Local
Advertisement - Login to hide

Runways

ID Width Length Bearing (true) Bearing (mag) Surface Threshold Offset Overrun Length
05 75 ft / 23 m 5,002 ft / 1,525 m 39.83° 48.98° Asphalt 0 ft / 0 m 0 ft / 0 m
23 75 ft / 23 m 5,002 ft / 1,525 m 219.83° 228.98° Asphalt 50 ft / 15 m 0 ft / 0 m

Map

Weather


0- 5 10 15 20 25 30 35+ Temperature / ° C

Clouds and Precipitation
Forecast for 2018-05-21 06:00 UTC. Updated 35 minutes ago

Ground ~20,000 ft ~40,000 ft Winds

METAR

KHRJ 210525Z AUTO 00000KT 10SM CLR 22/19 A3012 RMK AO2 T02220185

TAF

Not found

Frequencies

Recorded 119.02 MHz AWOS 3
Approach 125.17 MHz FAYETTEVILLE APP/DEP
Unicom 122.70 MHz CTAF/UNICOM
Warning: Do not use this data for real-world aviation or navigation. No guarantee of current accuracy is given.